EW0401 Weather Reports


time (UTC)temp
C
wind
direction
speed
KPH
gust
KPH
rain 1hr
cm
rain 24hr
cm
rain mn
cm
humidity
%
barometer
mb
20260507123054 17 0 0.0 4.8 0.00 0.05 0.00 86 1015.5
20260507122033 17 360 0.0 4.8 0.00 0.05 0.00 86 1015.2
20260507121555 17 0 0.0 4.8 0.00 0.05 0.00 86 1015.3
20260507120053 17 0 0.0 4.8 0.00 0.05 0.00 86 1014.8
20260507114554 17 75 0.0 9.7 0.00 0.05 0.00 86 1014.5
20260507113054 17 57 0.0 6.4 0.00 0.05 0.00 85 1014.2
20260507111553 18 59 1.6 8.0 0.00 0.05 0.00 85 1014.4
20260507110057 18 0 1.6 11.3 0.00 0.05 0.00 85 1014.3
20260507104555 18 0 3.2 8.0 0.00 0.05 0.00 85 1014.2
20260507103055 18 0 0.0 14.5 0.00 0.05 0.00 86 1013.9
20260507101604 18 0 1.6 9.7 0.00 0.05 0.00 86 1013.7
20260507100053 18 0 3.2 11.3 0.00 0.05 0.00 86 1013.5
20260507094559 19 0 3.2 12.9 0.00 0.05 0.00 86 1013.4
20260507093052 19 78 0.0 8.0 0.00 0.05 0.00 86 1013.4
20260507091603 19 0 0.0 6.4 0.00 0.05 0.00 86 1013.4
20260507090110 20 5 1.6 9.7 0.00 0.05 0.00 86 1013.4
20260507084549 20 352 0.0 4.8 0.00 0.05 0.00 87 1013.0
20260507083100 20 9 0.0 4.8 0.00 0.05 0.00 87 1013.0
20260507081559 20 0 0.0 6.4 0.00 0.05 0.00 87 1013.2
20260507080057 20 0 0.0 3.2 0.00 0.05 0.00 87 1013.1
20260507074558 20 52 0.0 4.8 0.00 0.05 0.00 87 1013.4
20260507073101 20 0 0.0 3.2 0.00 0.05 0.00 86 1013.4
20260507071556 21 0 0.0 8.0 0.00 0.05 0.00 86 1013.1
20260507070134 21 0 0.0 4.8 0.00 0.05 0.00 86 1013.3
20260507064553 21 0 0.0 4.8 0.00 0.05 0.00 86 1013.3
20260507063055 21 0 0.0 6.4 0.00 0.05 0.00 86 1013.2
20260507061549 21 0 0.0 3.2 0.00 0.05 0.00 86 1013.2
20260507060053 21 0 0.0 8.0 0.00 0.05 0.00 87 1013.1
20260507054556 22 0 0.0 4.8 0.00 0.05 0.00 87 1012.9
20260507053055 22 0 0.0 0.0 0.00 0.05 0.00 88 1013.0
20260507051555 22 0 0.0 4.8 0.03 0.05 0.00 87 1013.0
20260507050053 22 0 0.0 3.2 0.03 0.05 0.00 87 1012.9
20260507044610 22 0 1.6 9.7 0.03 0.05 0.05 87 1012.9
20260507043049 23 0 0.0 3.2 0.03 0.05 0.05 87 1012.9
20260507041600 23 0 0.0 4.8 0.00 0.03 0.03 87 1012.8
20260507040055 24 34 0.0 3.2 0.00 0.03 0.03 87 1012.4
20260507034554 25 0 0.0 0.0 0.00 0.03 0.03 89 1012.0
20260507033052 25 0 0.0 0.0 0.00 0.03 0.03 89 1011.9
20260507031551 25 0 0.0 1.6 0.00 0.03 0.03 89 1011.6
20260507030105 25 0 0.0 3.2 0.00 0.03 0.03 88 1011.2
20260507024551 25 0 0.0 0.0 0.00 0.03 0.03 88 1011.1
20260507023052 25 0 0.0 0.0 0.00 0.03 0.03 88 1011.1
20260507021613 25 0 0.0 0.0 0.00 0.03 0.03 88 1010.9
20260507014612 25 0 0.0 0.0 0.00 0.03 0.03 87 1010.5
20260507013056 25 0 0.0 1.6 0.00 0.03 0.03 87 1010.4
20260507011551 25 0 0.0 3.2 0.00 0.03 0.03 87 1010.3
20260507010105 26 0 0.0 3.2 0.00 0.03 0.03 87 1009.5
20260507004553 26 0 0.0 0.0 0.00 0.03 0.03 87 1009.5
20260507003051 26 0 0.0 3.2 0.00 0.03 0.03 86 1009.4
20260507001553 26 0 0.0 3.2 0.00 0.03 0.03 86 1009.4
20260507000056 26 0 0.0 6.4 0.00 0.03 0.03 85 1009.4
20260506234555 26 0 0.0 3.2 0.00 0.03 0.03 85 1009.4
20260506233057 27 193 0.0 3.2 0.00 0.03 0.03 85 1009.3
20260506231554 27 0 0.0 6.4 0.00 0.03 0.03 85 1009.4
20260506230103 27 0 0.0 11.3 0.00 0.03 0.03 85 1009.3
20260506224558 27 172 0.0 4.8 0.00 0.03 0.03 84 1009.0
20260506223052 27 0 0.0 9.7 0.00 0.03 0.03 84 1009.1
20260506221553 27 189 0.0 8.0 0.00 0.03 0.03 82 1009.2
20260506220052 28 0 0.0 4.8 0.00 0.03 0.03 82 1009.1
20260506214550 28 200 0.0 3.2 0.00 0.03 0.03 83 1009.0
20260506213056 28 0 1.6 8.0 0.00 0.03 0.03 83 1009.1
20260506211555 28 0 0.0 6.4 0.00 0.03 0.03 83 1009.1
20260506210054 28 0 0.0 4.8 0.00 0.03 0.03 83 1009.2
20260506204554 28 0 0.0 8.0 0.00 0.03 0.03 83 1009.4
20260506203055 27 175 1.6 11.3 0.00 0.03 0.03 83 1009.6
20260506201607 27 184 1.6 9.7 0.00 0.03 0.03 84 1009.7
20260506200054 27 0 0.0 9.7 0.00 0.03 0.03 84 1010.1
20260506194557 28 0 0.0 9.7 0.00 0.03 0.03 84 1010.2
20260506193058 28 217 0.0 12.9 0.00 0.03 0.03 83 1010.2
20260506191559 27 0 0.0 8.0 0.00 0.03 0.03 85 1010.2
20260506190056 27 0 0.0 4.8 0.00 0.03 0.03 85 1010.4
20260506184558 27 0 0.0 9.7 0.00 0.03 0.03 85 1010.8
20260506183055 27 0 0.0 4.8 0.00 0.03 0.03 86 1010.9
20260506181556 26 0 0.0 3.2 0.00 0.03 0.03 86 1011.0
20260506180053 26 0 0.0 4.8 0.00 0.03 0.03 86 1011.2
20260506174552 26 0 0.0 4.8 0.00 0.03 0.03 87 1011.3
20260506173112 26 0 0.0 3.2 0.00 0.03 0.03 87 1011.5
20260506171559 26 0 0.0 3.2 0.03 0.03 0.03 88 1011.7
20260506170057 26 348 0.0 3.2 0.03 0.03 0.03 89 1011.7
20260506164555 25 0 0.0 3.2 0.03 0.03 0.03 89 1011.8
20260506163102 25 0 0.0 3.2 0.03 0.03 0.03 88 1011.7
20260506161559 25 0 0.0 4.8 0.00 0.00 0.00 88 1011.7
20260506160052 25 197 0.0 4.8 0.00 0.00 0.00 88 1011.5
20260506154601 25 0 0.0 4.8 0.00 0.00 0.00 87 1011.4
20260506153054 26 0 0.0 4.8 0.00 0.00 0.00 87 1011.1
20260506151557 26 192 0.0 6.4 0.00 0.00 0.00 87 1011.0
20260506150059 26 0 0.0 9.7 0.00 0.00 0.00 88 1010.6
20260506144554 26 0 0.0 3.2 0.00 0.00 0.00 88 1010.4
20260506143054 25 0 0.0 9.7 0.00 0.00 0.00 88 1010.6
20260506141554 25 263 0.0 4.8 0.00 0.00 0.00 89 1010.7
20260506140101 25 0 0.0 4.8 0.00 0.00 0.00 90 1010.6
20260506134556 25 0 0.0 6.4 0.00 0.00 0.00 90 1010.6
20260506133100 24 261 0.0 1.6 0.00 0.00 0.00 90 1010.8
20260506131552 24 0 0.0 3.2 0.00 0.00 0.00 90 1010.7
20260506130056 24 0 0.0 0.0 0.00 0.00 0.00 90 1010.8
20260506124559 24 0 0.0 3.2 0.00 0.00 0.00 90 1010.8
20260506124508 24 190 0.0 3.2 0.00 0.00 0.00 91 1010.3